Regional Weather Roundup
Issued by NWS State College, PA

Home | Current Version | Previous Version | Text Only | Print | Product List | Glossary On
Versions: 1 2 3 4 5 6 7 8 9 10 11 12 13 14 15 16 17 18 19 20 21 22 23 24 25 26 27 28 29 30 31 32 33 34 35 36 37 38 39 40 41 42 43 44 45 46 47 48 49 50
000
ASUS41 KCTP 210010
RWRCTP

REGIONAL WEATHER ROUNDUP
NATIONAL WEATHER SERVICE STATE COLLEGE PA
800 PM EDT SUN AUG 20 2017

Note: "fair" indicates few or no clouds below 12,000 feet with no
significant weather and/or obstructions to visibility.

* = STATION THAT DOES NOT REPORT PRECIPITATION /E.G. RAIN...SNOW...ETC/
    THUNDER OR FOG.

PAZ002>004-007>009-013>016-020>023-029>032-210100-
WESTERN PENNSYLVANIA

CITY           SKY/WX    TMP DP  RH WIND       PRES   REMARKS
ERIE           CLEAR     75  65  70 CALM      30.10S
MEADVILLE      CLEAR     76  55  48 CALM      30.13F
FRANKLIN*        N/A     72  57  60 S6        30.16
NEW CASTLE     FAIR      74  64  71 S3        30.13S
BEAVER COUNTY  NOT AVBL
BUTLER*        CLEAR     75  61  61 SE3       30.15R
PITTSBURGH INT MOCLDY    79  63  57 SE5       30.13R
PITTSBURGH     CLEAR     79  58  48 S3        30.14R
INDIANA*       CLEAR     72  64  78 CALM      30.19R
LATROBE        CLEAR     75  57  53 CALM      30.15R
WASHINGTON CO* CLEAR     72  64  78 CALM      30.14R
$$

PAZ004>006-010>012-017>019-024>028-033>037-041-042-045-046-049>053-210100-
CENTRAL PENNSYLVANIA

CITY           SKY/WX    TMP DP  RH WIND       PRES   REMARKS
BRADFORD       CLEAR     67  60  78 CALM      30.17R
DUBOIS         CLEAR     69  58  67 SW3       30.16R
CLEARFIELD     CLEAR     75  59  57 CALM      30.16R
JOHNSTOWN      CLEAR     75  55  49 N3        30.19R
ALTOONA        CLEAR     68  66  93 SE3       30.17R
STATE COLLEGE  CLEAR     72  61  68 SW6       30.15R
WILLIAMSPORT   CLEAR     77  62  59 SW5       30.09R
SELINSGROVE    CLEAR     70  69  97 CALM      30.12R
FT INDIANTOWN  CLEAR     71  67  88 CALM      30.13R
CAPITAL CITY   CLEAR     78  64  61 CALM      30.12R
HARRISBURG     PTCLDY    76  68  76 CALM      30.12R
YORK           CLEAR     72  66  81 CALM      30.14R
$$

PAZ038>040-043-044-047-048-054-055-060>062-067>071-210100-
EASTERN PENNSYLVANIA

CITY           SKY/WX    TMP DP  RH WIND       PRES   REMARKS
SCRANTON       CLEAR     75  62  64 CALM      30.13R
MOUNT POCONO     N/A     66  61  84 CALM      30.17S
ALLENTOWN      CLEAR     73  62  68 SW5       30.11R
QUAKERTOWN*    CLEAR     73  64  73 CALM      30.13S
READING        CLEAR     77  64  64 W5        30.11R
LANCASTER      CLEAR     78  62  57 W5        30.13R
COATESVILLE    CLEAR     75  63  64 CALM      30.15S
POTTSTOWN      CLEAR     73  64  73 CALM      30.14R
BLUE BELL      CLEAR     68  64  88 CALM      30.13S
DOYLESTOWN     CLEAR     72  64  76 CALM      30.11S
WILLOW GROVE   NOT AVBL
NORTH PHILA    CLEAR     79  61  53 W3        30.12S
PHILADELPHIA   PTCLDY    81  59  47 N7        30.11S
$$




USA.gov is the U.S. government's official web portal to all federal, state and local government web resources and services.